Home   Weather   Wunstorf   Past weeks

Flag for Germany Past Weather in Wunstorf, Lower Saxony, Germany — Yesterday and Last 2 Weeks

Now
73 °F

Partly sunny.


Feels Like: 77 °F
Forecast: 51 / 64 °F
Wind: 21 mph from Southwest

Location: Wunstorf Airport

Current Time: Sep 29, 2016 at 1:54:23 PM

Latest Report: Sep 29, 2016 at 1:20 PM


Visibility: N/A

Pressure: 29.89 "Hg

Humidity: 50%

Dew Point: 54 °F

Location of WunstorfLocation

Past Weather in Wunstorf — Graph

°F

Wunstorf Temperature Yesterday

Maximum temperature yesterday: 70 °F (at 1:20 PM)
Minimum temperature yesterday: 54 °F (at 12:20 AM)
Average temperature yesterday: 63 °F

High & Low Weather Summary for the Past Weeks

 TemperatureHumidityPressure
High86 °F (Sep 14, 2:20 PM)100% (Sep 22, 3:20 AM)30.30 "Hg (Sep 22, 3:20 AM)
Low45 °F (Sep 24, 7:20 AM)31% (Sep 14, 4:20 PM)29.86 "Hg (Sep 15, 5:20 PM)
Average62 °F69%30.10 "Hg
* Reported Sep 14 12:20 PM — Sep 29 12:20 PM, Wunstorf, Weather by CustomWeather, © 2016

Note: Actual official high and low records may vary slightly from our data, if they occured in-between our weather recording intervals... More about our weather records

Advertising

Wunstorf Weather History for the Previous 24 Hours

Scroll right to see more
 ConditionsComfort  
Time TempWeatherWind HumidityBarometerVisibility
12:20 PM
Thu, Sep 29
70 °FPartly sunny.21 mph57%29.92 "HgN/A
11:20 AM68 °FPartly sunny.20 mph60%29.95 "HgN/A
10:20 AM68 °FPartly sunny.21 mph56%29.98 "HgN/A
9:20 AM66 °FPartly sunny.17 mph60%29.98 "HgN/A
8:20 AM66 °FPartly sunny.17 mph56%30.01 "HgN/A
7:20 AM66 °FPartly sunny.13 mph56%30.01 "HgN/A
6:20 AM66 °FPassing clouds.15 mph56%30.04 "HgN/A
5:20 AM66 °FPartly cloudy.14 mph60%30.04 "HgN/A
4:20 AM66 °FMild.13 mph64%30.07 "Hg4 mi
3:20 AM66 °FMild.12 mph64%30.07 "Hg4 mi
2:20 AM66 °FMild.14 mph60%30.09 "Hg4 mi
1:20 AM66 °FMild.13 mph56%30.12 "Hg4 mi
12:20 AM64 °FMild.10 mph64%30.12 "Hg4 mi
11:20 PM
Wed, Sep 28
66 °FMild.12 mph60%30.12 "Hg4 mi
10:20 PM66 °FMild.13 mph60%30.12 "Hg4 mi
9:20 PM68 °FMild.12 mph56%30.15 "Hg4 mi
8:20 PM68 °FMild.13 mph56%30.15 "Hg4 mi
7:20 PM68 °FPassing clouds.14 mph56%30.15 "HgN/A
6:20 PM68 °FPartly sunny.14 mph56%30.15 "HgN/A
5:20 PM68 °FPartly sunny.18 mph60%30.12 "HgN/A
4:20 PM70 °FPartly sunny.20 mph57%30.12 "HgN/A
3:20 PM70 °FPartly sunny.20 mph53%30.15 "HgN/A
2:20 PM70 °FPartly sunny.17 mph53%30.15 "HgN/A
1:20 PM70 °FBroken clouds.21 mph57%30.15 "HgN/A
Weather by CustomWeather, © 2016

See weather overviewHow to use our weather pages